Burlington, CO

4:06 PM MST on December 06, 2016 (GMT -0700)
Kit Carson County

Weather History for KITR - April, 2013

Change the Weather History Date:

Thursday, April 4, 2013

  Actual Average Record
Temperature  
Mean Temperature 49 °F 45 °F  
Max Temperature 70 °F 60 °F 86 °F (1967)
Min Temperature 27 °F 30 °F 2 °F (1920)
Degree Days  
Heating Degree Days 17    
Moisture  
Dew Point 31 °F    
Average Humidity 53    
Maximum Humidity 89    
Minimum Humidity 25    
Precipitation  
Precipitation 0.00 in 0.03 in 0.78 in (1962)
Month to date precipitation T 0.10  
Year to date precipitation 2.59 1.79  
Sea Level Pressure  
Sea Level Pressure 30.07 in    
Wind  
Wind Speed 10 mph (NW)    
Max Wind Speed 18 mph    
Max Gust Speed -    
Visibility 10 miles    
Events      
T = Trace of Precipitation, MM = Missing Value Source: NWS Daily Summary

Daily Weather History Graph

Daily Weather History Graph

Search for Another Location

Airport or City:

Trip Planner

Search our weather history database for the weather conditions in past years. The results will help you decide how hot, cold, wet, or windy it might be!

Date:

Astronomy

Apr. 04, 2013 Rise Set
Actual Time 6:28 AM MDT 7:16 PM MDT
Civil Twilight 6:01 AM MDT 7:43 PM MDT
Nautical Twilight 5:29 AM MDT 8:15 PM MDT
Astronomical Twilight 4:56 AM MDT 8:48 PM MDT
Moon 2:54 AM MDT (4/4) 1:38 PM MDT (4/4)
Length of Visible Light 13h 42m
Length of Day
12h 47m
Waning Crescent, 33% of the Moon is Illuminated
Apr 4
Waning Crescent
Apr 10
New
Apr 18
First Quarter
Apr 25
Full
May 2
Last Quarter

Hourly Weather History & Observations

Time (MDT) Temp. Windchill Dew Point Humidity Pressure Visibility Wind Dir Wind Speed Gust Speed Precip Events Conditions
12:53 AM 30.0 °F 21.1 °F 26.1 °F 85% 30.16 in 10.0 mi SSW 10.4 mph - N/A   Clear
1:53 AM 27.0 °F 17.3 °F 24.1 °F 89% 30.15 in 10.0 mi SW 10.4 mph - N/A   Clear
2:53 AM 30.9 °F 22.8 °F 27.0 °F 85% 30.11 in 10.0 mi West 9.2 mph - N/A   Clear
3:53 AM 30.0 °F 22.4 °F 26.1 °F 85% 30.10 in 10.0 mi West 8.1 mph - N/A   Clear
4:53 AM 34.0 °F 26.6 °F 26.1 °F 73% 30.09 in 10.0 mi WNW 9.2 mph - N/A   Clear
5:53 AM 33.1 °F 24.9 °F 25.0 °F 72% 30.11 in 10.0 mi WNW 10.4 mph - N/A   Clear
6:53 AM 35.1 °F 26.9 °F 28.0 °F 76% 30.11 in 10.0 mi WNW 11.5 mph - N/A   Clear
7:53 AM 42.1 °F 37.1 °F 33.1 °F 70% 30.14 in 10.0 mi WNW 8.1 mph - N/A   Clear
8:53 AM 50.0 °F - 36.0 °F 59% 30.13 in 10.0 mi North 11.5 mph - N/A   Clear
9:53 AM 55.0 °F - 37.0 °F 51% 30.12 in 10.0 mi North 11.5 mph - N/A   Clear
10:53 AM 57.9 °F - 36.0 °F 44% 30.12 in 10.0 mi North 5.8 mph - N/A   Clear
11:53 AM 62.1 °F - 36.0 °F 38% 30.10 in 10.0 mi North 6.9 mph - N/A   Clear
12:53 PM 64.9 °F - 35.1 °F 33% 30.07 in 10.0 mi North 8.1 mph - N/A   Clear
1:53 PM 66.9 °F - 33.1 °F 28% 30.05 in 10.0 mi NNW 5.8 mph - N/A   Clear
2:53 PM 69.1 °F - 32.0 °F 25% 30.02 in 10.0 mi North 9.2 mph - N/A   Clear
3:53 PM 69.1 °F - 32.0 °F 25% 30.01 in 10.0 mi North 8.1 mph - N/A   Clear
4:53 PM 66.9 °F - 30.9 °F 26% 30.00 in 10.0 mi ENE 4.6 mph - N/A   Clear
5:53 PM 66.0 °F - 30.9 °F 27% 30.00 in 10.0 mi East 5.8 mph - N/A   Clear
6:53 PM 61.0 °F - 33.1 °F 35% 30.01 in 10.0 mi East 8.1 mph - N/A   Clear
7:53 PM 51.1 °F - 30.9 °F 46% 30.02 in 10.0 mi SE 10.4 mph - N/A   Clear
8:53 PM 50.0 °F - 33.1 °F 52% 30.02 in 10.0 mi SSE 12.7 mph - N/A   Clear
9:53 PM 46.0 °F 40.2 °F 32.0 °F 58% 30.02 in 10.0 mi SSE 12.7 mph - N/A   Clear
10:53 PM 48.9 °F - 28.9 °F 46% 30.00 in 10.0 mi South 18.4 mph - N/A   Clear
11:53 PM 46.9 °F - 30.0 °F 52% 29.99 in 10.0 mi South 18.4 mph - N/A   Clear